Franklin, NC

5:01 PM EDT on September 20, 2017 (GMT -0400)
Franklin

Weather History for K1A5 - November, 2011

Change the Weather History Date:

Sunday, November 27, 2011

  Actual Average (KTOC) Record (KTOC)
Temperature  
Mean Temperature 58 °F -  
Max Temperature 62 °F 60 °F 70 °F (2015)
Min Temperature 55 °F 40 °F 30 °F (2013)
Degree Days  
Heating Degree Days 6    
Growing Degree Days 8 (Base 50)    
Moisture  
Dew Point 48 °F    
Average Humidity 67    
Maximum Humidity 82    
Minimum Humidity 55    
Precipitation  
Precipitation 0.02 in - - ()
Sea Level Pressure  
Sea Level Pressure 30.06 in    
Wind  
Wind Speed 7 mph (East)    
Max Wind Speed 13 mph    
Max Gust Speed 29 mph    
Visibility 10 miles    
Events Rain    
Averages and records for this station are not official NWS values.
T = Trace of Precipitation, MM = Missing Value Source: NWS Daily Summary

Daily Weather History Graph

Daily Weather History Graph

Search for Another Location

Airport or City:

Trip Planner

Search our weather history database for the weather conditions in past years. The results will help you decide how hot, cold, wet, or windy it might be!

Date:

Astronomy

Nov. 27, 2011 Rise Set
Actual Time 7:19 AM EST 5:22 PM EST
Civil Twilight 6:52 AM EST 5:49 PM EST
Nautical Twilight 6:21 AM EST 6:21 PM EST
Astronomical Twilight 5:50 AM EST 6:51 PM EST
Moon 9:42 AM EST (11/27) 8:00 PM EST (11/27)
Length of Visible Light 10h 57m
Length of Day
10h 02m
Waxing Crescent, 8% of the Moon is Illuminated
Nov 27
Waxing Crescent
Dec 2
First Quarter
Dec 10
Full
Dec 17
Last Quarter
Dec 24
New

Hourly Weather History & Observations

Time (EST) Temp. Dew Point Humidity Pressure Visibility Wind Dir Wind Speed Gust Speed Precip Events Conditions
12:15 AM 57.2 °F 46.4 °F 67% 30.18 in 10.0 mi East 8.1 mph - N/A   Overcast
12:35 AM 57.2 °F 46.4 °F 67% 30.18 in 10.0 mi East 6.9 mph - N/A   Overcast
12:55 AM 57.2 °F 48.2 °F 72% 30.18 in 10.0 mi East 6.9 mph - N/A   Overcast
1:15 AM 55.4 °F 48.2 °F 77% 30.17 in 10.0 mi East 6.9 mph - N/A Rain Light Rain
1:35 AM 57.2 °F 48.2 °F 72% 30.16 in 10.0 mi East 5.8 mph - N/A   Overcast
1:55 AM 57.2 °F 46.4 °F 67% 30.15 in 10.0 mi East 9.2 mph - N/A   Overcast
2:15 AM 57.2 °F 46.4 °F 67% 30.15 in 10.0 mi East 6.9 mph - N/A   Overcast
2:35 AM 57.2 °F 46.4 °F 67% 30.15 in 10.0 mi East 5.8 mph - N/A   Overcast
2:55 AM 57.2 °F 46.4 °F 67% 30.15 in 10.0 mi East 8.1 mph 18.4 mph N/A   Overcast
3:15 AM 57.2 °F 46.4 °F 67% 30.15 in 10.0 mi East 3.5 mph - N/A   Overcast
3:35 AM 57.2 °F 46.4 °F 67% 30.14 in 10.0 mi East 5.8 mph - N/A   Overcast
4:15 AM 57.2 °F 46.4 °F 67% 30.13 in 10.0 mi Calm Calm - N/A   Unknown
4:35 AM 55.4 °F 48.2 °F 77% 30.13 in 10.0 mi East 3.5 mph - N/A   Overcast
4:55 AM 55.4 °F 46.4 °F 72% 30.13 in 10.0 mi Calm Calm - N/A   Overcast
5:15 AM 55.4 °F 46.4 °F 72% 30.12 in 10.0 mi East 3.5 mph - N/A   Overcast
5:35 AM 55.4 °F 46.4 °F 72% 30.12 in 10.0 mi East 3.5 mph - N/A   Overcast
6:15 AM 57.2 °F 46.4 °F 67% 30.12 in 10.0 mi East 8.1 mph 16.1 mph N/A   Overcast
6:35 AM 57.2 °F 46.4 °F 67% 30.12 in 10.0 mi East 3.5 mph - N/A   Overcast
6:55 AM 57.2 °F 48.2 °F 72% 30.11 in 10.0 mi East 11.5 mph 20.7 mph N/A Rain Rain
7:15 AM 55.4 °F 48.2 °F 77% 30.11 in 10.0 mi East 8.1 mph 23.0 mph N/A   Overcast
7:35 AM 57.2 °F 48.2 °F 72% 30.11 in 10.0 mi East 12.7 mph 28.8 mph N/A   Overcast
7:55 AM 57.2 °F 48.2 °F 72% 30.11 in 10.0 mi East 8.1 mph 17.3 mph N/A   Overcast
8:15 AM 57.2 °F 48.2 °F 72% 30.11 in 10.0 mi East 8.1 mph 17.3 mph N/A   Overcast
8:35 AM 59.0 °F 48.2 °F 67% 30.11 in 10.0 mi East 8.1 mph 24.2 mph N/A   Mostly Cloudy
8:55 AM 59.0 °F 48.2 °F 67% 30.11 in 10.0 mi East 8.1 mph 17.3 mph N/A   Mostly Cloudy
9:35 AM 59.0 °F 46.4 °F 63% 30.13 in 10.0 mi East 6.9 mph 18.4 mph N/A   Overcast
10:15 AM 55.4 °F 50.0 °F 82% 30.13 in 5.0 mi East 10.4 mph 21.9 mph N/A Rain Light Rain
10:35 AM 59.0 °F 50.0 °F 72% 30.12 in 10.0 mi East 10.4 mph 16.1 mph N/A   Overcast
10:55 AM 55.4 °F 50.0 °F 82% 30.12 in 5.0 mi East 10.4 mph 19.6 mph N/A   Drizzle
11:15 AM 57.2 °F 50.0 °F 77% 30.11 in 10.0 mi East 6.9 mph 16.1 mph N/A   Overcast
11:55 AM 59.0 °F 48.2 °F 67% 30.09 in 10.0 mi East 11.5 mph 21.9 mph N/A   Overcast
12:15 PM 59.0 °F 48.2 °F 67% 30.07 in 10.0 mi East 10.4 mph 20.7 mph N/A   Overcast
12:55 PM 60.8 °F 46.4 °F 59% 30.05 in 10.0 mi East 9.2 mph - N/A   Overcast
1:15 PM 59.0 °F 46.4 °F 63% 30.04 in 10.0 mi East 5.8 mph - N/A   Overcast
1:35 PM 60.8 °F 46.4 °F 59% 30.03 in 10.0 mi East 4.6 mph - N/A   Overcast
1:55 PM 60.8 °F 46.4 °F 59% 30.02 in 10.0 mi East 6.9 mph - N/A   Overcast
2:15 PM 60.8 °F 46.4 °F 59% 30.01 in 10.0 mi East 5.8 mph - N/A   Overcast
2:35 PM 60.8 °F 46.4 °F 59% 30.00 in 10.0 mi East 3.5 mph - N/A   Mostly Cloudy
2:55 PM 62.6 °F 48.2 °F 59% 29.99 in 10.0 mi East 4.6 mph - N/A   Mostly Cloudy
3:15 PM 62.6 °F 46.4 °F 55% 29.99 in 10.0 mi East 6.9 mph - N/A   Mostly Cloudy
3:35 PM 62.6 °F 46.4 °F 55% 29.99 in 10.0 mi East 5.8 mph - N/A   Scattered Clouds
3:55 PM 62.6 °F 46.4 °F 55% 29.99 in 10.0 mi East 4.6 mph - N/A   Mostly Cloudy
4:15 PM 62.6 °F 46.4 °F 55% 29.99 in 10.0 mi East 8.1 mph - N/A   Overcast
4:35 PM 62.6 °F 46.4 °F 55% 29.99 in 10.0 mi East 10.4 mph 17.3 mph N/A   Overcast
4:55 PM 60.8 °F 46.4 °F 59% 29.98 in 10.0 mi East 6.9 mph - N/A   Mostly Cloudy
5:15 PM 60.8 °F 46.4 °F 59% 29.99 in 10.0 mi East 6.9 mph 16.1 mph N/A   Overcast
5:35 PM 60.8 °F 48.2 °F 63% 29.99 in 10.0 mi East 5.8 mph 17.3 mph N/A   Overcast
5:55 PM 60.8 °F 48.2 °F 63% 29.98 in 10.0 mi East 5.8 mph - N/A   Overcast
6:15 PM 60.8 °F 46.4 °F 59% 29.97 in 10.0 mi East 5.8 mph - N/A   Overcast
6:35 PM 60.8 °F 46.4 °F 59% 29.97 in 10.0 mi East 9.2 mph - N/A   Overcast
6:55 PM 60.8 °F 48.2 °F 63% 29.97 in 10.0 mi East 6.9 mph - N/A   Overcast
7:15 PM 60.8 °F 50.0 °F 68% 29.97 in 7.0 mi East 6.9 mph - N/A   Heavy Drizzle
7:35 PM 60.8 °F 50.0 °F 68% 29.96 in 10.0 mi East 6.9 mph - N/A   Heavy Drizzle
7:55 PM 60.8 °F 50.0 °F 68% 29.95 in 10.0 mi East 4.6 mph - N/A   Light Drizzle
8:15 PM 60.8 °F 50.0 °F 68% 29.94 in 10.0 mi East 6.9 mph - N/A   Light Drizzle
8:35 PM 60.8 °F 50.0 °F 68% 29.96 in 10.0 mi East 4.6 mph - N/A   Overcast
8:55 PM 60.8 °F 50.0 °F 68% 29.97 in 10.0 mi East 6.9 mph - N/A Rain Light Rain
9:15 PM 60.8 °F 50.0 °F 68% 29.98 in 10.0 mi East 5.8 mph - N/A Rain Light Rain
9:35 PM 59.0 °F 51.8 °F 77% 29.98 in 7.0 mi East 5.8 mph - N/A   Drizzle
9:55 PM 57.2 °F 51.8 °F 82% 29.98 in 10.0 mi East 6.9 mph - 0.01 in Rain Light Rain
10:15 PM 57.2 °F 51.8 °F 82% 29.97 in 7.0 mi Calm Calm - 0.01 in Rain Light Rain
10:35 PM 57.2 °F 51.8 °F 82% 29.96 in 7.0 mi Calm Calm - 0.02 in   Heavy Drizzle
10:55 PM 57.2 °F 53.6 °F 88% 29.95 in 7.0 mi Calm Calm - 0.04 in Rain Rain
11:15 PM 57.2 °F 53.6 °F 88% 29.94 in 7.0 mi Calm Calm - 0.01 in Rain Light Rain
11:35 PM 57.2 °F 51.8 °F 82% 29.95 in 7.0 mi Calm Calm - 0.02 in Rain Light Rain
11:55 PM 57.2 °F 51.8 °F 82% 29.93 in 7.0 mi Calm Calm - 0.04 in Rain Heavy Rain